Tracking 19288 objects as of 20-Nov-2018
HD Live streaming from Space Station
objects crossing your sky now

IRIDIUM 38

Track IRIDIUM 38 now!
10-day predictions
IRIDIUM 38 is classified as:


NORAD ID: 25043
Int'l Code: 1997-069E
Perigee: 776.4 km
Apogee: 780.6 km
Inclination: 86.4 °
Period: 100.3 minutes
Semi major axis: 7149 km
RCS: 5.0293 m2 (large)
Launch date: November 9, 1997
Source: United States (US)
Launch site: AIR FORCE WESTERN TEST RANGE (AFWTR)
aabbcc
Your satellite tracking list
Your tracking list is empty




NASA's NSSDC Master Catalog

Two Line Element Set (TLE):
1 25043U 97069E   18323.92614946 +.00000125 +00000-0 +36219-4 0  9996
2 25043 086.3962 160.8638 0002884 065.4081 294.7416 14.36117770101202
Source of the keplerian elements: AFSPC